Weather observations for the past three days for
El Dorado Captain Jack Thomas Airport
| Date | Time (cdt) | Wind (kph) | Vis. (km) | Weather | Sky Cond. | Temperature (ºC) | Relative Humidity | Wind Chill (°C) | Heat Index (°C) | Pressure | Precipitation (cm) | ||||||
|---|---|---|---|---|---|---|---|---|---|---|---|---|---|---|---|---|---|
| Air | Dwpt | 6 hour | altimeter (cm) | sea level (mb) | 1 hr | 3 hr | 6 hr | ||||||||||
| Max. | Min. | ||||||||||||||||
| 02 | 10:35 | SW 22 G 31 | 16.09 | Overcast | OVC002 | 35 | 18 | 36% | 36 | 76.25 | 0.0 | ||||||
| 02 | 10:15 | SW 24 G 35 | 16.09 | Overcast | OVC002 | 33 | 18 | 41% | 34 | 76.25 | 0.0 | ||||||
| 02 | 09:55 | SW 26 | 16.09 | Overcast | OVC002 | 33 | 18 | 41% | 34 | 76.25 | 0.0 | ||||||
| 02 | 09:35 | S 24 G 30 | 16.09 | Overcast | OVC002 | 32 | 18 | 43% | 33 | 76.25 | 0.0 | ||||||
| 02 | 09:15 | S 19 G 28 | 16.09 | Overcast | OVC002 | 31 | 18 | 46% | 32 | 76.25 | 0.0 | ||||||
| 02 | 08:55 | S 20 | 16.09 | Overcast | OVC002 | 30 | 18 | 49% | 31 | 76.25 | 0.0 | ||||||
| 02 | 08:35 | S 20 G 28 | 16.09 | Overcast | OVC002 | 28 | 18 | 55% | 29 | 76.25 | 0.0 | ||||||
| 02 | 08:15 | S 20 | 16.09 | Overcast | OVC002 | 28 | 18 | 55% | 29 | 76.25 | 0.0 | ||||||
| 02 | 07:55 | S 15 | 16.09 | Overcast | OVC002 | 27 | 18 | 58% | 28 | 76.23 | 0.0 | ||||||
| 02 | 07:35 | S 17 | 16.09 | Overcast | OVC002 | 26 | 17 | 58% | 27 | 76.23 | 0.0 | ||||||
| 02 | 07:15 | S 15 | 16.09 | Overcast | OVC002 | 26 | 17 | 58% | 27 | 76.2 | 0.0 | ||||||
| 02 | 06:55 | S 15 | 16.09 | Overcast | OVC002 | 26 | 17 | 58% | 27 | 76.2 | 0.0 | ||||||
| 02 | 06:35 | S 13 | 16.09 | Overcast | OVC002 | 26 | 17 | 58% | 27 | 76.17 | 0.0 | ||||||
| 02 | 06:15 | S 15 | 16.09 | Overcast | OVC002 | 26 | 17 | 58% | 27 | 76.17 | 0.0 | ||||||
| 02 | 05:55 | S 13 | 16.09 | Overcast | OVC002 | 25 | 17 | 61% | 26 | 76.17 | 0.0 | ||||||
| 02 | 05:35 | S 13 | 16.09 | Overcast | OVC002 | 26 | 17 | 58% | 27 | 76.17 | 0.0 | ||||||
| 02 | 05:15 | S 15 | 16.09 | Overcast | OVC002 | 25 | 17 | 61% | 26 | 76.15 | 0.0 | ||||||
| 02 | 04:55 | S 11 | 16.09 | Overcast | OVC002 | 26 | 16 | 54% | 27 | 76.15 | 0.0 | ||||||
| 02 | 04:35 | S 11 | 16.09 | Overcast | OVC002 | 26 | 16 | 54% | 27 | 76.15 | 0.0 | ||||||
| 02 | 04:15 | S 13 | 16.09 | Overcast | OVC002 | 26 | 16 | 54% | 27 | 76.15 | 0.0 | ||||||
| 02 | 03:55 | S 13 | 16.09 | Overcast | OVC002 | 27 | 16 | 51% | 27 | 76.15 | 0.0 | ||||||
| 02 | 03:35 | S 13 | 16.09 | Overcast | OVC002 | 27 | 16 | 51% | 27 | 76.12 | 0.0 | ||||||
| 02 | 03:15 | S 11 | 16.09 | Overcast | OVC002 | 26 | 16 | 54% | 27 | 76.12 | 0.0 | ||||||
| 02 | 02:55 | S 11 | 16.09 | Overcast | OVC002 | 26 | 16 | 54% | 27 | 76.12 | 0.0 | ||||||
| 02 | 02:35 | S 13 | 16.09 | Overcast | OVC002 | 27 | 16 | 51% | 27 | 76.12 | 0.0 | ||||||
| 02 | 02:15 | S 13 | 16.09 | Overcast | OVC002 | 27 | 16 | 51% | 27 | 76.12 | 0.0 | ||||||
| 02 | 01:55 | S 13 | 16.09 | Overcast | OVC002 | 27 | 16 | 51% | 27 | 76.15 | 0.0 | ||||||
| 02 | 01:35 | S 13 | 16.09 | Overcast | OVC002 | 27 | 16 | 51% | 27 | 76.15 | 0.0 | ||||||
| 02 | 01:15 | S 11 | 16.09 | Overcast | OVC002 | 27 | 16 | 51% | 27 | 76.12 | 0.0 | ||||||
| 02 | 00:55 | S 13 | 16.09 | Overcast | OVC002 | 27 | 16 | 51% | 27 | 76.12 | 0.0 | ||||||
| 02 | 00:35 | S 13 | 16.09 | Overcast | OVC002 | 27 | 16 | 51% | 27 | 76.12 | 0.0 | ||||||
| 02 | 00:15 | S 13 | 16.09 | Overcast | OVC002 | 27 | 16 | 51% | 27 | 76.12 | 0.0 | ||||||
| 01 | 23:55 | S 15 | 16.09 | Overcast | OVC002 | 27 | 16 | 51% | 27 | 76.15 | 0.0 | ||||||
| 01 | 23:35 | S 13 | 16.09 | Overcast | OVC002 | 27 | 16 | 51% | 27 | 76.12 | 0.0 | ||||||
| 01 | 23:15 | SE 15 | 16.09 | Overcast | OVC002 | 28 | 15 | 45% | 28 | 76.12 | 0.0 | ||||||
| 01 | 22:55 | SE 13 | 16.09 | Overcast | OVC002 | 28 | 15 | 45% | 28 | 76.12 | 0.0 | ||||||
| 01 | 22:35 | SE 15 | 16.09 | Overcast | OVC002 | 29 | 15 | 43% | 29 | 76.12 | 0.0 | ||||||
| 01 | 22:15 | S 13 | 16.09 | Overcast | OVC002 | 28 | 15 | 45% | 28 | 76.12 | 0.0 | ||||||
| 01 | 21:55 | S 11 | 16.09 | Overcast | OVC002 | 28 | 15 | 45% | 28 | 76.12 | 0.0 | ||||||
| 01 | 21:35 | SE 13 | 16.09 | Overcast | OVC002 | 29 | 14 | 40% | 29 | 76.1 | 0.0 | ||||||
| 01 | 21:15 | SE 13 | 11.27 | Overcast | OVC002 | 30 | 14 | 38% | 29 | 76.07 | 0.0 | ||||||
| 01 | 20:55 | SE 13 | 4.83 | Overcast with Haze | OVC002 | 30 | 13 | 35% | 29 | 76.05 | 0.0 | ||||||
| 01 | 20:35 | SE 13 | 4.02 | Overcast with Haze | OVC002 | 31 | 13 | 33% | 30 | 76.05 | 0.0 | ||||||
| 01 | 20:15 | S 11 | 16.09 | Overcast | OVC002 | 31 | 13 | 33% | 30 | 76.05 | 0.0 | ||||||
| 01 | 19:55 | S 11 | 16.09 | Overcast | OVC002 | 33 | 12 | 28% | 32 | 76.05 | 0.0 | ||||||
| 01 | 19:35 | S 13 | 16.09 | Overcast | OVC002 | 35 | 12 | 25% | 34 | 76.05 | 0.0 | ||||||
| 01 | 19:15 | S 19 | 16.09 | Overcast | OVC002 | 36 | 12 | 23% | 35 | 76.05 | 0.0 | ||||||
| 01 | 18:55 | S 20 | 16.09 | Overcast | OVC002 | 36 | 12 | 23% | 35 | 76.05 | 0.0 | ||||||
| 01 | 18:35 | S 20 | 16.09 | Overcast | OVC002 | 37 | 11 | 21% | 36 | 76.07 | 0.0 | ||||||
| 01 | 18:15 | S 19 | 16.09 | Overcast | OVC002 | 37 | 11 | 21% | 36 | 76.07 | 0.0 | ||||||
| 01 | 17:55 | S 24 G 31 | 16.09 | Overcast | OVC002 | 38 | 11 | 20% | 37 | 76.05 | 0.0 | ||||||
| 01 | 17:35 | S 19 G 30 | 16.09 | Overcast | OVC002 | 38 | 11 | 20% | 37 | 76.07 | 0.0 | ||||||
| 01 | 17:15 | S 17 G 33 | 16.09 | Overcast | OVC002 | 38 | 11 | 20% | 37 | 76.07 | 0.0 | ||||||
| 01 | 16:55 | S 22 G 30 | 16.09 | Overcast | OVC002 | 38 | 11 | 20% | 37 | 76.07 | 0.0 | ||||||
| 01 | 16:35 | S 24 G 35 | 16.09 | Overcast | OVC002 | 38 | 11 | 20% | 37 | 76.07 | 0.0 | ||||||
| 01 | 16:15 | S 17 | 16.09 | Overcast | OVC002 | 39 | 11 | 18% | 38 | 76.1 | 0.0 | ||||||
| 01 | 15:55 | S 17 G 33 | 16.09 | Overcast | OVC002 | 40 | 11 | 17% | 39 | 76.1 | 0.0 | ||||||
| 01 | 15:35 | SW 20 G 33 | 16.09 | Overcast | OVC002 | 40 | 11 | 17% | 39 | 76.12 | 0.0 | ||||||
| 01 | 15:15 | SW 26 G 37 | 16.09 | Overcast | OVC002 | 39 | 11 | 18% | 38 | 76.15 | 0.0 | ||||||
| 01 | 14:55 | SW 30 | 16.09 | Overcast | OVC002 | 39 | 11 | 18% | 38 | 76.17 | 0.0 | ||||||
| 01 | 14:35 | S 26 G 39 | 16.09 | Overcast | OVC002 | 39 | 11 | 18% | 38 | 76.17 | 0.0 | ||||||
| 01 | 14:15 | S 20 G 33 | 16.09 | Overcast | BKN002 OVC090 | 37 | 11 | 21% | 36 | 76.2 | 0.0 | ||||||
| 01 | 13:55 | SW 22 G 35 | 16.09 | Overcast | BKN002 OVC090 | 38 | 11 | 20% | 37 | 76.2 | 0.0 | ||||||
| 01 | 13:35 | SW 30 G 37 | 16.09 | Overcast | OVC002 | 38 | 11 | 20% | 37 | 76.23 | 0.0 | ||||||
| 01 | 13:15 | S 24 | 16.09 | Overcast | OVC002 | 38 | 11 | 20% | 37 | 76.23 | 0.0 | ||||||
| 01 | 12:55 | SW 22 G 37 | 16.09 | Overcast | OVC002 | 38 | 12 | 21% | 37 | 76.23 | 0.0 | ||||||
| 01 | 12:35 | S 24 G 39 | 16.09 | Overcast | OVC002 | 38 | 13 | 22% | 37 | 76.25 | 0.0 | ||||||
| 01 | 12:15 | SW 22 G 35 | 16.09 | Overcast | OVC002 | 37 | 13 | 24% | 36 | 76.28 | 0.0 | ||||||
| 01 | 11:55 | SW 31 | 16.09 | Overcast | OVC002 | 38 | 13 | 22% | 37 | 76.28 | 0.0 | ||||||
| 01 | 11:35 | SW 24 G 39 | 16.09 | Overcast | OVC002 | 37 | 14 | 25% | 36 | 76.3 | 0.0 | ||||||
| 01 | 11:15 | SW 24 G 35 | 16.09 | Overcast | OVC002 | 36 | 14 | 27% | 35 | 76.3 | 0.0 | ||||||
| 01 | 10:55 | SW 22 G 35 | 16.09 | Overcast | OVC002 | 36 | 14 | 27% | 35 | 76.3 | 0.0 | ||||||
| 01 | 10:35 | S 24 G 35 | 16.09 | Overcast | OVC002 | 35 | 14 | 28% | 34 | 76.3 | 0.0 | ||||||
| 01 | 10:15 | SW 26 G 35 | 16.09 | Overcast | OVC002 | 35 | 15 | 30% | 35 | 76.3 | 0.0 | ||||||
| 01 | 09:55 | SW 22 | 16.09 | Overcast | OVC002 | 33 | 15 | 34% | 33 | 76.3 | 0.0 | ||||||
| 01 | 09:35 | SW 22 | 16.09 | Overcast | OVC002 | 33 | 15 | 34% | 33 | 76.3 | 0.0 | ||||||
| 01 | 09:15 | SW 17 | 16.09 | Overcast | OVC002 | 32 | 15 | 36% | 32 | 76.3 | 0.0 | ||||||
| 01 | 08:55 | S 15 | 16.09 | Overcast | OVC002 | 30 | 14 | 38% | 29 | 76.33 | 0.0 | ||||||
| 01 | 08:35 | S 17 | 16.09 | Overcast | OVC002 | 29 | 15 | 43% | 29 | 76.33 | 0.0 | ||||||
| 01 | 08:15 | S 13 | 16.09 | Overcast | OVC002 | 27 | 15 | 48% | 27 | 76.33 | 0.0 | ||||||
| 01 | 07:55 | S 15 | 16.09 | Overcast | OVC002 | 26 | 15 | 51% | 27 | 76.33 | 0.0 | ||||||
| 01 | 07:35 | S 11 | 16.09 | Overcast | OVC002 | 23 | 15 | 61% | 76.3 | 0.0 | |||||||
| 01 | 07:15 | S 11 | 16.09 | Overcast | OVC002 | 22 | 15 | 65% | 76.28 | 0.0 | |||||||
| 01 | 06:55 | S 9 | 16.09 | Overcast | OVC002 | 22 | 15 | 65% | 76.28 | 0.0 | |||||||
| 01 | 06:35 | S 11 | 16.09 | Overcast | OVC002 | 22 | 15 | 65% | 76.28 | 0.0 | |||||||
| 01 | 06:15 | S 9 | 16.09 | Overcast | OVC002 | 23 | 15 | 61% | 76.25 | 0.0 | |||||||
| 01 | 05:55 | S 11 | 16.09 | Overcast | OVC002 | 22 | 15 | 65% | 76.25 | 0.0 | |||||||
| 01 | 05:35 | S 13 | 16.09 | Overcast | OVC002 | 22 | 15 | 65% | 76.25 | 0.0 | |||||||
| 01 | 05:15 | S 11 | 16.09 | Overcast | OVC002 | 22 | 15 | 65% | 76.23 | 0.0 | |||||||
| 01 | 04:55 | S 11 | 16.09 | Overcast | OVC002 | 23 | 15 | 61% | 76.23 | 0.0 | |||||||
| 01 | 04:35 | S 9 | 16.09 | Overcast | OVC004 | 23 | 15 | 61% | 76.23 | 0.0 | |||||||
| 01 | 04:15 | S 9 | 16.09 | Overcast | OVC004 | 23 | 15 | 61% | 76.2 | 0.0 | |||||||
| 01 | 03:55 | S 11 | 16.09 | Overcast | OVC004 | 24 | 15 | 57% | 25 | 76.2 | 0.0 | ||||||
| 01 | 03:35 | S 11 | 16.09 | Overcast | OVC004 | 24 | 15 | 57% | 25 | 76.17 | 0.0 | ||||||
| 01 | 03:15 | S 13 | 16.09 | Mostly Cloudy | BKN004 | 25 | 15 | 54% | 26 | 76.17 | 0.0 | ||||||
| 01 | 02:55 | S 11 | 16.09 | Partly Cloudy | SCT004 | 25 | 15 | 54% | 26 | 76.17 | 0.0 | ||||||
| 01 | 02:35 | S 9 | 16.09 | Partly Cloudy | SCT004 | 25 | 15 | 54% | 26 | 76.17 | 0.0 | ||||||
| 01 | 02:15 | S 11 | 16.09 | Partly Cloudy | SCT004 | 25 | 15 | 54% | 26 | 76.17 | 0.0 | ||||||
| 01 | 01:55 | S 9 | 16.09 | Partly Cloudy | SCT003 | 25 | 15 | 54% | 26 | 76.2 | 0.0 | ||||||
| 01 | 01:35 | S 11 | 16.09 | Fair | CLR | 25 | 15 | 54% | 26 | 76.2 | 0.0 | ||||||
| 01 | 01:15 | S 11 | 16.09 | Fair | CLR | 25 | 15 | 54% | 26 | 76.2 | 0.0 | ||||||
| 01 | 00:55 | S 11 | 16.09 | Fair | CLR | 26 | 15 | 51% | 27 | 76.2 | 0.0 | ||||||
| 01 | 00:35 | S 11 | 16.09 | Fair | CLR | 26 | 15 | 51% | 27 | 76.2 | 0.0 | ||||||
| 01 | 00:15 | S 11 | 16.09 | Fair | CLR | 27 | 15 | 48% | 27 | 76.2 | 0.0 | ||||||
| 31 | 23:55 | S 11 | 16.09 | Partly Cloudy | SCT003 | 27 | 15 | 48% | 27 | 76.2 | 0.0 | ||||||
| 31 | 23:35 | S 11 | 16.09 | Partly Cloudy | SCT003 | 27 | 15 | 48% | 27 | 76.17 | 0.0 | ||||||
| 31 | 23:15 | S 13 | 16.09 | Fair | CLR | 28 | 15 | 45% | 28 | 76.17 | 0.0 | ||||||
| 31 | 22:55 | S 11 | 16.09 | Fair | CLR | 28 | 14 | 42% | 28 | 76.17 | 0.0 | ||||||
| 31 | 22:35 | S 13 | 16.09 | Fair | CLR | 28 | 14 | 42% | 28 | 76.15 | 0.0 | ||||||
| 31 | 22:15 | S 15 | 16.09 | Fair | CLR | 29 | 14 | 40% | 29 | 76.12 | 0.0 | ||||||
| 31 | 21:55 | SE 15 | 16.09 | Partly Cloudy | SCT002 | 29 | 14 | 40% | 29 | 76.12 | 0.0 | ||||||
| 31 | 21:35 | SE 15 | 16.09 | Partly Cloudy | SCT002 | 30 | 15 | 40% | 30 | 76.1 | 0.0 | ||||||
| 31 | 21:15 | SE 13 | 16.09 | Partly Cloudy | SCT002 | 30 | 15 | 40% | 30 | 76.07 | 0.0 | ||||||
| 31 | 20:55 | SE 11 | 6.44 | Overcast with Haze | OVC002 | 30 | 15 | 40% | 30 | 76.07 | 0.0 | ||||||
| 31 | 20:35 | SE 11 | 3.22 | Overcast with Haze | OVC002 | 31 | 14 | 35% | 30 | 76.05 | 0.0 | ||||||
| 31 | 20:15 | SE 9 | 4.83 | Fair with Haze | CLR | 32 | 13 | 31% | 31 | 76.02 | 0.0 | ||||||
| 31 | 19:55 | SE 9 | 8.05 | Fair with Haze | CLR | 33 | 13 | 30% | 32 | 76.02 | 0.0 | ||||||
| 31 | 19:35 | S 11 | 16.09 | Fair | CLR | 35 | 13 | 26% | 34 | 76.02 | 0.0 | ||||||
| 31 | 19:15 | S 13 | 16.09 | Fair | CLR | 36 | 12 | 23% | 35 | 76.02 | 0.0 | ||||||
| 31 | 18:35 | S 17 | 16.09 | Fair | CLR | 38 | 11 | 20% | 37 | 76.02 | 0.0 | ||||||
| 31 | 18:15 | S 17 | 16.09 | Fair | CLR | 38 | 11 | 20% | 37 | 76.02 | 0.0 | ||||||
| 31 | 17:55 | S 19 G 26 | 16.09 | Fair | CLR | 39 | 10 | 17% | 37 | 76.02 | 0.0 | ||||||
| 31 | 17:35 | S 22 G 31 | 16.09 | Fair | CLR | 40 | 11 | 17% | 39 | 76.02 | 0.0 | ||||||
| 31 | 17:15 | S 24 G 31 | 16.09 | Fair | CLR | 40 | 11 | 17% | 39 | 76.02 | 0.0 | ||||||
| 31 | 16:55 | S 26 G 35 | 16.09 | Fair | CLR | 40 | 12 | 19% | 39 | 76.02 | 0.0 | ||||||
| 31 | 16:35 | S 28 G 37 | 16.09 | Fair | CLR | 40 | 12 | 19% | 39 | 76.05 | 0.0 | ||||||
| 31 | 16:15 | SW 17 G 31 | 16.09 | Fair | CLR | 40 | 12 | 19% | 39 | 76.05 | 0.0 | ||||||
| 31 | 15:55 | S 22 G 31 | 16.09 | Fair | CLR | 40 | 11 | 17% | 39 | 76.07 | 0.0 | ||||||
| 31 | 15:35 | S 17 | 16.09 | Fair | CLR | 40 | 12 | 19% | 39 | 76.07 | 0.0 | ||||||
| 31 | 15:15 | S 24 G 31 | 16.09 | Fair | CLR | 40 | 12 | 19% | 39 | 76.1 | 0.0 | ||||||
| 31 | 14:55 | S 19 G 30 | 16.09 | Fair | CLR | 40 | 12 | 19% | 39 | 76.1 | 0.0 | ||||||
| 31 | 14:35 | SW 17 G 37 | 16.09 | Fair | CLR | 40 | 13 | 20% | 39 | 76.1 | 0.0 | ||||||
| 31 | 14:15 | S 20 G 33 | 16.09 | Fair | CLR | 40 | 13 | 20% | 39 | 76.12 | 0.0 | ||||||
| 31 | 13:55 | S 17 G 30 | 16.09 | Fair | CLR | 40 | 13 | 20% | 39 | 76.12 | 0.0 | ||||||
| 31 | 13:35 | SW 19 G 30 | 16.09 | Fair | CLR | 39 | 14 | 23% | 39 | 76.15 | 0.0 | ||||||
| 31 | 13:15 | SW 30 G 39 | 16.09 | Fair | CLR | 39 | 13 | 21% | 38 | 76.17 | 0.0 | ||||||
| 31 | 12:55 | SW 26 | 16.09 | Fair | CLR | 38 | 14 | 24% | 38 | 76.17 | 0.0 | ||||||
| 31 | 12:35 | SW 22 G 37 | 16.09 | Fair | CLR | 38 | 14 | 24% | 38 | 76.2 | 0.0 | ||||||
| 31 | 12:15 | S 24 | 16.09 | Fair | CLR | 37 | 15 | 27% | 37 | 76.2 | 0.0 | ||||||
| 31 | 11:55 | SW 19 G 26 | 16.09 | Fair | CLR | 37 | 15 | 27% | 37 | 76.23 | 0.0 | ||||||
| 31 | 11:35 | S 17 G 31 | 16.09 | Fair | CLR | 36 | 16 | 30% | 36 | 76.23 | 0.0 | ||||||
| 31 | 11:15 | S 20 G 26 | 16.09 | Fair | CLR | 36 | 16 | 30% | 36 | 76.23 | 0.0 | ||||||
| 31 | 10:55 | SW 20 | 16.09 | Fair | CLR | 35 | 16 | 32% | 35 | 76.25 | 0.0 | ||||||
| 31 | 10:35 | SW 19 | 16.09 | Fair | CLR | 34 | 16 | 34% | 34 | 76.23 | 0.0 | ||||||
| 31 | 10:15 | SW 20 G 33 | 16.09 | Fair | CLR | 33 | 15 | 34% | 33 | 76.25 | 0.0 | ||||||
| 31 | 09:55 | SW 19 G 26 | 16.09 | Fair | CLR | 32 | 15 | 36% | 32 | 76.23 | 0.0 | ||||||
| 31 | 09:35 | SW 24 | 16.09 | Fair | CLR | 32 | 15 | 36% | 32 | 76.23 | 0.0 | ||||||
| 31 | 09:15 | S 20 G 26 | 16.09 | Fair | CLR | 31 | 15 | 38% | 31 | 76.23 | 0.0 | ||||||
| 31 | 08:55 | S 17 | 16.09 | Fair | CLR | 30 | 15 | 40% | 30 | 76.25 | 0.0 | ||||||
| 31 | 08:35 | S 13 | 16.09 | Fair | CLR | 28 | 16 | 48% | 28 | 76.25 | 0.0 | ||||||
| 31 | 08:15 | S 17 | 16.09 | Fair | CLR | 27 | 16 | 51% | 27 | 76.23 | 0.0 | ||||||
| 31 | 07:55 | S 13 | 16.09 | Fair | CLR | 26 | 16 | 54% | 27 | 76.2 | 0.0 | ||||||
| 31 | 07:35 | S 13 | 16.09 | Fair | CLR | 25 | 16 | 57% | 26 | 76.2 | 0.0 | ||||||
| 31 | 07:15 | S 13 | 16.09 | Fair | CLR | 23 | 16 | 65% | 76.2 | 0.0 | |||||||
| 31 | 06:55 | S 11 | 16.09 | Fair | CLR | 23 | 16 | 65% | 76.17 | 0.0 | |||||||
| 31 | 06:35 | S 7 | 16.09 | Fair | CLR | 23 | 16 | 65% | 76.17 | 0.0 | |||||||
| 31 | 06:15 | S 7 | 16.09 | Fair | CLR | 24 | 16 | 61% | 25 | 76.17 | 0.0 | ||||||
| 31 | 05:55 | S 11 | 16.09 | Fair | CLR | 24 | 16 | 61% | 25 | 76.15 | 0.0 | ||||||
| 31 | 05:35 | S 11 | 16.09 | Fair | CLR | 24 | 16 | 61% | 25 | 76.12 | 0.0 | ||||||
| 31 | 05:15 | S 11 | 16.09 | Fair | CLR | 24 | 16 | 61% | 25 | 76.12 | 0.0 | ||||||
| 31 | 04:55 | S 11 | 16.09 | Fair | CLR | 24 | 16 | 61% | 25 | 76.1 | 0.0 | ||||||
| 31 | 04:35 | S 9 | 16.09 | Fair | CLR | 25 | 16 | 57% | 26 | 76.1 | 0.0 | ||||||
| 31 | 04:15 | S 11 | 16.09 | Fair | CLR | 26 | 15 | 51% | 27 | 76.07 | 0.0 | ||||||
| 31 | 03:55 | S 11 | 16.09 | Fair | CLR | 27 | 15 | 48% | 27 | 76.05 | 0.0 | ||||||
| 31 | 03:35 | S 15 | 16.09 | Fair | CLR | 27 | 15 | 48% | 27 | 76.02 | 0.0 | ||||||
| 31 | 03:15 | S 15 | 16.09 | Fair | CLR | 27 | 15 | 48% | 27 | 76.02 | 0.0 | ||||||
| 31 | 02:55 | S 13 | 16.09 | Fair | CLR | 28 | 15 | 45% | 28 | 76.05 | 0.0 | ||||||
| 31 | 02:35 | S 15 | 16.09 | Fair | CLR | 29 | 15 | 43% | 29 | 76.05 | 0.0 | ||||||
| 31 | 02:15 | S 15 | 16.09 | Fair | CLR | 29 | 15 | 43% | 29 | 76.07 | 0.0 | ||||||
| 31 | 01:55 | S 17 | 16.09 | Fair | CLR | 30 | 15 | 40% | 30 | 76.07 | 0.0 | ||||||
| 31 | 01:35 | S 22 G 28 | 16.09 | Fair | CLR | 30 | 15 | 40% | 30 | 76.05 | 0.0 | ||||||
| 31 | 01:15 | S 20 | 16.09 | Fair | CLR | 30 | 15 | 40% | 30 | 76.02 | 0.0 | ||||||
| 31 | 00:55 | S 26 G 35 | 16.09 | Fair | CLR | 31 | 15 | 38% | 31 | 76 | 0.0 | ||||||
| 31 | 00:35 | S 24 G 33 | 16.09 | Fair | CLR | 31 | 14 | 35% | 30 | 75.97 | 0.0 | ||||||
| 31 | 00:15 | S 24 G 31 | 16.09 | Fair | CLR | 31 | 14 | 35% | 30 | 75.95 | 0.0 | ||||||
| 30 | 23:55 | S 24 | 16.09 | Fair | CLR | 31 | 14 | 35% | 30 | 75.95 | 0.0 | ||||||
| 30 | 23:35 | S 24 | 16.09 | Fair | CLR | 31 | 14 | 35% | 30 | 75.95 | 0.0 | ||||||
| 30 | 23:15 | S 24 G 31 | 16.09 | Fair | CLR | 31 | 14 | 35% | 30 | 75.95 | 0.0 | ||||||
| 30 | 22:55 | S 20 | 16.09 | Fair | CLR | 31 | 14 | 35% | 30 | 75.97 | 0.0 | ||||||
| 30 | 22:35 | S 20 | 16.09 | Fair | CLR | 31 | 14 | 35% | 30 | 75.97 | 0.0 | ||||||
| 30 | 22:15 | S 17 | 16.09 | Fair | CLR | 31 | 14 | 35% | 30 | 75.95 | 0.0 | ||||||
| 30 | 21:55 | S 17 | 16.09 | Fair | CLR | 31 | 14 | 35% | 30 | 75.95 | 0.0 | ||||||
| 30 | 21:35 | S 15 | 16.09 | Fair | CLR | 32 | 14 | 33% | 31 | 75.92 | 0.0 | ||||||
| 30 | 21:15 | S 19 | 16.09 | Fair | CLR | 32 | 13 | 31% | 31 | 75.92 | 0.0 | ||||||
| 30 | 20:55 | S 20 | 16.09 | Fair | CLR | 33 | 14 | 32% | 32 | 75.9 | 0.0 | ||||||
| 30 | 20:35 | S 13 | 16.09 | Fair | CLR | 33 | 13 | 30% | 32 | 75.87 | 0.0 | ||||||
| 30 | 20:15 | S 17 | 16.09 | Fair | CLR | 35 | 13 | 26% | 34 | 75.84 | 0.0 | ||||||
| 30 | 19:55 | S 19 | 16.09 | Fair | CLR | 35 | 13 | 26% | 34 | 75.84 | 0.0 | ||||||
| 30 | 19:35 | S 22 | 16.09 | Fair | CLR | 36 | 13 | 25% | 35 | 75.84 | 0.0 | ||||||
| 30 | 19:15 | S 24 G 35 | 16.09 | Fair | CLR | 37 | 13 | 24% | 36 | 75.84 | 0.0 | ||||||
| 30 | 18:55 | S 30 | 16.09 | Fair | CLR | 38 | 13 | 22% | 37 | 75.84 | 0.0 | ||||||
| 30 | 18:35 | S 28 G 37 | 16.09 | Fair | CLR | 39 | 13 | 21% | 38 | 75.84 | 0.0 | ||||||
| 30 | 18:15 | S 31 | 16.09 | Fair | CLR | 40 | 13 | 20% | 39 | 75.84 | 0.0 | ||||||
| 30 | 17:55 | S 26 G 44 | 16.09 | Fair | CLR | 40 | 14 | 21% | 40 | 75.82 | 0.0 | ||||||
| 30 | 17:35 | S 30 G 41 | 16.09 | Fair | CLR | 40 | 14 | 21% | 40 | 75.79 | 0.0 | ||||||
| 30 | 17:15 | S 30 G 41 | 16.09 | Fair | CLR | 41 | 14 | 20% | 41 | 75.79 | 0.0 | ||||||
| 30 | 16:55 | S 33 G 41 | 16.09 | Fair and Breezy | CLR | 41 | 13 | 19% | 40 | 75.82 | 0.0 | ||||||
| 30 | 16:35 | S 33 G 39 | 16.09 | Fair and Breezy | CLR | 41 | 13 | 19% | 40 | 75.82 | 0.0 | ||||||
| 30 | 16:15 | S 31 | 16.09 | Fair | CLR | 41 | 13 | 19% | 40 | 75.82 | 0.0 | ||||||
| 30 | 15:55 | S 37 G 43 | 16.09 | Fair and Breezy | CLR | 41 | 14 | 20% | 41 | 75.84 | 0.0 | ||||||
| 30 | 15:35 | S 31 G 43 | 16.09 | Fair | CLR | 41 | 14 | 20% | 41 | 75.84 | 0.0 | ||||||
| 30 | 15:15 | S 30 G 43 | 16.09 | Fair | CLR | 41 | 14 | 20% | 41 | 75.87 | 0.0 | ||||||
| 30 | 14:55 | S 35 G 48 | 16.09 | Fair and Breezy | CLR | 41 | 14 | 20% | 41 | 75.9 | 0.0 | ||||||
| 30 | 14:35 | S 28 G 37 | 16.09 | Fair | CLR | 40 | 15 | 23% | 40 | 75.92 | 0.0 | ||||||
| 30 | 14:15 | SW 31 G 46 | 16.09 | Fair | CLR | 40 | 15 | 23% | 40 | 75.92 | 0.0 | ||||||
| 30 | 13:55 | SW 35 G 50 | 16.09 | Fair and Breezy | CLR | 40 | 16 | 24% | 41 | 75.92 | 0.0 | ||||||
| 30 | 13:35 | SW 31 G 41 | 16.09 | Fair | CLR | 40 | 16 | 24% | 41 | 75.95 | 0.0 | ||||||
| 30 | 13:15 | SW 39 G 50 | 16.09 | Fair and Breezy | CLR | 38 | 16 | 27% | 39 | 75.95 | 0.0 | ||||||
| 30 | 12:55 | S 39 G 46 | 16.09 | Fair and Breezy | CLR | 38 | 16 | 27% | 39 | 75.97 | 0.0 | ||||||
| 30 | 12:35 | S 39 G 50 | 16.09 | Fair and Breezy | CLR | 37 | 16 | 29% | 37 | 76 | 0.0 | ||||||
| 30 | 12:15 | S 35 G 46 | 16.09 | Fair and Breezy | CLR | 37 | 16 | 29% | 37 | 76.02 | 0.0 | ||||||
| 30 | 11:55 | SW 30 G 44 | 16.09 | Fair | CLR | 37 | 16 | 29% | 37 | 76.02 | 0.0 | ||||||
| 30 | 11:35 | S 33 G 46 | 16.09 | Fair and Breezy | CLR | 36 | 16 | 30% | 36 | 76.02 | 0.0 | ||||||
| 30 | 11:15 | S 30 G 43 | 16.09 | Fair | CLR | 36 | 16 | 30% | 36 | 76.02 | 0.0 | ||||||
| 30 | 10:55 | S 30 G 41 | 16.09 | Fair | CLR | 35 | 16 | 32% | 35 | 76.05 | 0.0 | ||||||
| Date | Time (cdt) | Wind (kph) | Vis. (km) | Weather | Sky Cond. | Air | Dwpt | Max. | Min. | Relative Humidity | Wind Chill (°C) | Heat Index (°C) | altimeter (cm) | sea level (mb) | 1 hr | 3 hr | 6 hr |
| 6 hour | |||||||||||||||||
| Temperature (ºC) | Pressure | Precipitation (cm) | |||||||||||||||